Regional Weather Roundup
Issued by NWS Charleston, SC

Current Version | Previous Version | Graphics & Text | Print | Product List | Glossary On
Versions: 1 2 3 4 5 6 7 8 9 10 11 12 13 14 15 16 17 18 19 20 21 22 23 24 25 26 27 28 29 30 31 32 33 34 35 36 37 38 39 40 41 42 43 44 45 46 47 48 49 50
000 ASUS42 KCHS 041127 RWRCHS REGIONAL WEATHER ROUNDUP NATIONAL WEATHER SERVICE CHARLESTON SC 700 AM EDT SAT JUL 04 2015 NOTE: "FAIR" INDICATES FEW OR NO CLOUDS BELOW 12,000 FEET WITH NO SIGNIFICANT WEATHER AND/OR OBSTRUCTIONS TO VISIBILITY. NOT ALL STATIONS ARE QUALITY CONTROLLED BY THE NATIONAL WEATHER SERVICE. USE DATA WITH CAUTION...ESPECIALLY DEWPOINT OBSERVATIONS. SCZ027-030-031-034>040-042>050-041200- ...SOUTHEAST SOUTH CAROLINA... CITY SKY/WX TMP DP RH WIND PRES REMARKS N CHARLESTON PTCLDY 71 68 90 N6 30.06R WATERFRONT PAR N/A 78 71 79 VRB2 30.02R MOUNT PLEASANT FAIR 72 70 94 N3 30.07R JOHNS ISLAND FAIR 77 73 88 CALM 30.06R PINOPOLIS NOT AVBL MONCKS CORNER FAIR 70 68 94 CALM 30.07R SUMMERVILLE FAIR 70 70 100 CALM 30.08R BEAUFORT MCAS CLEAR 77 73 87 NW5 30.08R BEAUFORT ARPT FAIR 79 73 83 W6 30.08R HILTON HEAD IS PTCLDY 79 73 83 SW6 30.07R WALTERBORO MOSUNNY 68 66 94 CALM 30.10R ALLENDALE FAIR 72 68 88 CALM 30.06F ...SOUTHERN MIDLANDS AND PEE DEE... CITY SKY/WX TMP DP RH WIND PRES REMARKS GEORGETOWN NOT AVBL KINGSTREE NOT AVBL ORANGEBURG CLOUDY 70 67 90 SW5 30.07R BARNWELL FAIR 72 70 94 SW3 30.07F AIKEN NOT AVBL MANNING RAIN 70 55 60 SW5 30.07R COLUMBIA CLOUDY 71 66 84 SW7 30.03F SUMTER CLOUDY 71 68 91 SW12 30.03R FLORENCE CLOUDY 72 67 84 SW9 30.01R MYRTLE BEACH MOCLDY 75 66 73 W14 30.06R N MYRTLE BEACH CLOUDY 77 67 71 W9G18 30.03R $$ GAZ063-065-086>088-099>101-113>116-118-119-134>141-150-041200- ...SOUTHEAST GEORGIA... CITY SKY/WX TMP DP RH WIND PRES REMARKS SAVANNAH ARPT MOCLDY 75 71 87 W5 30.08R HUNTER AAF CLEAR 76 73 92 W8 30.05R FORT STEWART PTCLDY 75 72 89 SW6 30.06R STATESBORO NOT AVBL SYLVANIA PTSUNNY 73 72 97 CALM 30.08F CLAXTON FAIR 77 72 83 CALM 30.08R ...CSRA...CENTRAL AND FAR SOUTHEAST GEORGIA... CITY SKY/WX TMP DP RH WIND PRES REMARKS THOMSON CLOUDY 70 70 100 CALM 30.08R AUGUSTA-BUSH CLOUDY 72 68 87 SW3 30.04F AUGUSTA-DANIEL CLOUDY 72 67 84 SE3 30.05F SWAINSBORO FAIR N/A N/A N/A S3 30.07S VIDALIA PTCLDY 73 68 83 NW3 30.07F EASTMAN FAIR 71 71 100 CALM 30.09S HAZLEHURST FAIR 76 76 98 CALM 30.06F ALMA PTCLDY 74 73 97 S3 30.08R WAYCROSS MOCLDY 77 77 100 SW3 30.10R JESUP FAIR 75 73 94 CALM 30.09R BAXLEY FAIR 77 73 88 CALM 30.07S BRUNSWICK CLEAR 77 73 88 SW5 30.09S SAINT SIMONS CLEAR 76 73 91 W9 30.08R $$ SCZ027-028-034-036>038-045-046-048>050-GAZ119-141-041200- ...LAKE AND SUPPLEMENTAL COASTAL OBSERVATIONS... STATION/POSITION TIME TEMP WIND PRES WAVE SWELL AIR SEA DIR/SP/G HT/PER HT/PER/DIR (UTC) (F) (DEG/KT/KT) (MB) (FT/S) (FT/S/D) UPR LAKE MARION NOT AVBL WINYAH BAY 1045 71 260/ 6 1016.0R LAKE MURRAY 1100 73 260/ 12/ 15 1016.3F ACE BASIN NERRS NOT AVBL FORT PULASKI 1100 78 84 240/ 4/ 5 1018.8R SAPELO ISLAND 1100 78 230/ 9 1019.0R $$ ANZ835-935-AMZ111-154-330-350-352-354-370-450-454-472-041200- ...C-MAN AND BUOY OBSERVATIONS... STATION/POSITION TIME TEMP WIND PRES WAVE SWELL AIR SEA DIR/SP/G HT/PER HT/PER/DIR (UTC) (F) (DEG/KT/KT) (MB) (FT/S) (FT/S/D) BUOY 41004 1050 82 81 240/ 16/ 17 1017.2R 6/ 6 2/ 8 BUOY 41008 1050 80 78 260/ 12/ 14 1018.6R 3/ 8 2/110/ 8 FOLLY BEACH CMAN 1100 79 230/ 5/ 7 1017.7R CAPERS NEARSHORE 1008 81 CALM 1017.3R FRIPP NEARSHORE 1000 82 240/ 14/ 16 1017.2R STATION/POSITION TIME TEMP WIND PRES WAVE SWELL AIR SEA DIR/SP/G HT/PER HT/PER/DIR (UTC) (F) (DEG/KT/KT) (MB) (FT/S) (FT/S/D) 5E ST. MARYS GA 1021 76 N/A 2/ 8 FRYING PAN BUOY 1050 81 78 240/ 19/ 21 1017.3R 6/ 6 2/190/ 9 BUOY 41025 1050 80 81 240/ 25/ 29 1013.6R 8/ 7 3/170/14 CAPE LOOKOUT NC 1100 80 240/ 14/ 20 1015.1R BUOY 41002 1050 81 80 240/ 16/ 17 1019.6R 6/ 6 2/150/ 8 BUOY 41010 1020 83 84 180/ 8/ 10 1019.6R ST AUGUSTINE FL 1100 74 72 240/ 5/ 7 1020.3R $$

USA.gov is the U.S. government's official web portal to all federal, state and local government web resources and services.